Date String (YYYY-MM-DD hh:mm:ss) UTC,Instrument flags,Ambient pressure (hPa),Sample flow (lpm),Bypass flow (lpm),Sample temperature (°C),Ambient temperature (°C),ASC tube jacket temperature (°C),LED temperature (°C),Box temperature (°C),Sample RH (%),Span deviation,Mass concentration (μg/m³),Mass concentration (μg/m³),Mass concentration (μg/m³)
DateTimeUTC,F1_M11,P_M11,Q1_M11,Q2_M11,T1_M11,T2_M11,T3_M11,T4_M11,T5_M11,U1_M11,ZSPAN_M11,X0_M11,X2_M11,X1_M11
2022-12-05 15:00:00,,0815.9,4.99,0.00,21.8,20.2,00.0,30.9,23.5,18.6,0000.0,0003.91,0000.99,0000.65
2022-12-05 15:01:00,,0816.0,5.00,0.00,21.8,20.2,00.0,30.9,23.5,18.4,0000.0,0003.99,0001.02,0000.66
2022-12-05 15:02:00,,0816.0,5.01,0.00,21.8,20.2,00.0,30.9,23.4,18.6,0000.0,0004.02,0001.02,0000.66
2022-12-05 15:03:00,,0816.1,5.00,0.00,21.7,20.2,00.0,30.8,23.4,18.7,0000.0,0004.05,0001.03,0000.66
2022-12-05 15:04:00,,0816.0,5.00,0.00,21.7,20.2,00.0,30.8,23.4,18.7,0000.0,0004.51,0001.01,0000.66
2022-12-05 15:05:00,,0816.1,5.00,0.00,21.7,20.3,00.0,30.8,23.5,18.7,0000.0,0004.85,0000.99,0000.66
2022-12-05 15:06:00,,0816.0,5.00,0.00,21.8,21.2,00.0,30.7,23.8,18.6,0000.0,0004.91,0001.01,0000.66
2022-12-05 15:07:00,,0816.1,4.99,0.00,21.9,22.1,00.0,30.8,24.1,18.4,0000.0,0004.93,0001.01,0000.65
2022-12-05 15:08:00,,0816.2,5.00,0.00,22.0,22.1,00.0,30.8,24.2,18.4,0000.0,0004.30,0001.01,0000.65
2022-12-05 15:09:00,,0816.1,4.99,0.00,22.1,21.9,00.0,30.9,24.2,18.4,0000.0,0004.00,0000.97,0000.65
2022-12-05 15:10:00,,0816.1,5.02,0.00,22.1,21.6,00.0,30.9,24.1,18.4,0000.0,0003.17,0000.94,0000.64
2022-12-05 15:11:00,,0816.0,5.00,0.00,22.1,21.4,00.0,31.0,24.1,18.3,0000.0,0002.47,0000.93,0000.63
2022-12-05 15:12:00,,0816.0,4.99,0.00,22.1,21.2,00.0,31.0,24.0,18.0,0000.0,0002.45,0000.89,0000.62
2022-12-05 15:13:00,,0815.9,4.99,0.00,22.1,21.0,00.0,31.0,23.9,18.0,0000.0,0002.54,0000.92,0000.62
2022-12-05 15:14:00,,0815.9,5.00,0.00,22.1,20.9,00.0,31.0,23.9,17.8,0000.0,0002.54,0000.91,0000.62
2022-12-05 15:15:00,,0816.0,5.00,0.00,22.1,20.8,00.0,31.0,23.9,17.9,0000.0,0001.97,0000.88,0000.62
2022-12-05 15:16:00,,0815.8,5.00,0.00,22.1,20.8,00.0,31.0,23.9,18.0,0000.0,0001.97,0000.88,0000.63
2022-12-05 15:17:00,,0816.1,5.00,0.00,22.1,20.7,00.0,31.0,23.8,18.0,0000.0,0002.85,0000.89,0000.63
2022-12-05 15:18:00,,0815.9,5.01,0.00,22.0,20.7,00.0,31.0,23.8,18.2,0000.0,0003.54,0000.90,0000.64
2022-12-05 15:19:00,,0815.9,5.00,0.00,22.0,20.6,00.0,31.0,23.8,18.2,0000.0,0003.56,0000.90,0000.63
2022-12-05 15:20:00,,0816.0,5.00,0.00,22.0,20.6,00.0,31.0,23.7,18.1,0000.0,0003.56,0000.90,0000.63
2022-12-05 15:21:00,,0816.2,5.00,0.00,22.0,20.5,00.0,31.0,23.7,18.1,0000.0,0003.65,0000.95,0000.63
2022-12-05 15:22:00,,0816.2,4.99,0.00,22.0,20.5,00.0,31.0,23.6,18.5,0000.0,0004.79,0000.98,0000.62
2022-12-05 15:23:00,,0816.0,5.00,0.00,21.9,20.5,00.0,31.0,23.6,18.6,0000.0,0005.05,0000.97,0000.62
2022-12-05 15:24:00,,0816.1,5.00,0.00,21.9,20.5,00.0,31.0,23.6,18.3,0000.0,0004.91,0000.93,0000.61
2022-12-05 15:25:00,,0816.1,5.01,0.00,21.9,20.5,00.0,31.0,23.6,18.4,0000.0,0004.94,0000.94,0000.61
2022-12-05 15:26:00,,0816.1,4.99,0.00,21.9,20.5,00.0,31.0,23.7,18.3,0000.0,0004.95,0000.93,0000.60
2022-12-05 15:27:00,,0816.1,4.99,0.00,21.9,20.5,00.0,31.0,23.7,18.2,0000.0,0006.05,0000.94,0000.60
2022-12-05 15:28:00,,0816.2,5.02,0.00,21.9,20.5,00.0,31.0,23.6,18.1,0000.0,0005.52,0000.91,0000.59
2022-12-05 15:29:00,,0816.2,5.00,0.00,21.9,20.5,00.0,31.0,23.6,18.1,0000.0,0005.72,0000.91,0000.58
2022-12-05 15:30:00,,0816.3,4.98,0.00,21.9,20.5,00.0,31.0,23.6,18.4,0000.0,0005.57,0000.90,0000.58
2022-12-05 15:31:00,,0816.4,5.01,0.00,21.9,20.5,00.0,30.9,23.6,18.3,0000.0,0006.43,0000.88,0000.57
2022-12-05 15:32:00,,0816.4,5.01,0.00,21.9,20.5,00.0,30.9,23.6,18.5,0000.0,0006.44,0000.85,0000.57
2022-12-05 15:33:00,,0816.4,5.00,0.00,21.9,20.5,00.0,30.9,23.6,18.3,0000.0,0005.53,0000.83,0000.57
2022-12-05 15:34:00,,0816.3,4.99,0.00,21.9,20.4,00.0,30.9,23.6,18.5,0000.0,0004.94,0000.83,0000.57
2022-12-05 15:35:00,,0816.3,5.01,0.00,21.9,20.4,00.0,30.9,23.6,18.3,0000.0,0004.93,0000.83,0000.56
2022-12-05 15:36:00,,0816.3,4.99,0.00,21.9,20.4,00.0,30.9,23.6,18.2,0000.0,0004.81,0000.78,0000.55
2022-12-05 15:37:00,,0816.4,4.98,0.00,21.8,20.4,00.0,30.9,23.6,18.3,0000.0,0004.84,0000.79,0000.54
2022-12-05 15:38:00,,0816.4,5.01,0.00,21.8,20.4,00.0,30.9,23.5,18.6,0000.0,0003.64,0000.78,0000.54
2022-12-05 15:39:00,,0816.4,4.99,0.00,21.8,20.4,00.0,30.9,23.5,18.6,0000.0,0003.10,0000.76,0000.53
2022-12-05 15:40:00,,0816.4,5.00,0.00,21.8,20.5,00.0,30.9,23.5,18.6,0000.0,0002.14,0000.74,0000.53
2022-12-05 15:41:00,,0816.4,5.01,0.00,21.8,20.5,00.0,30.9,23.6,18.4,0000.0,0002.15,0000.74,0000.52
2022-12-05 15:42:00,,0816.2,4.98,0.00,21.9,20.5,00.0,30.9,23.6,18.0,0000.0,0001.44,0000.74,0000.52
2022-12-05 15:43:00,,0816.2,5.01,0.00,21.8,20.5,00.0,30.9,23.6,17.9,0000.0,0001.20,0000.74,0000.52
2022-12-05 15:44:00,,0816.3,5.00,0.00,21.8,20.5,00.0,30.9,23.6,17.8,0000.0,0001.25,0000.77,0000.53
2022-12-05 15:45:00,,0816.1,5.01,0.00,21.8,20.4,00.0,30.9,23.6,17.8,0000.0,0001.81,0000.79,0000.54
2022-12-05 15:46:00,,0816.2,4.99,0.00,21.8,20.4,00.0,30.9,23.5,17.8,0000.0,0002.73,0000.82,0000.55
2022-12-05 15:47:00,,0816.4,5.01,0.00,21.8,20.4,00.0,30.9,23.5,17.6,0000.0,0003.57,0000.86,0000.56
2022-12-05 15:48:00,,0816.3,5.01,0.00,21.8,20.4,00.0,30.9,23.5,17.9,0000.0,0003.61,0000.89,0000.57
2022-12-05 15:49:00,,0816.2,4.98,0.00,21.8,20.4,00.0,30.9,23.5,17.9,0000.0,0003.65,0000.91,0000.58
2022-12-05 15:50:00,,0816.4,5.00,0.00,21.8,20.4,00.0,30.9,23.5,17.7,0000.0,0005.37,0000.94,0000.58
2022-12-05 15:51:00,,0816.4,5.02,0.00,21.8,20.4,00.0,30.9,23.5,18.1,0000.0,0005.50,0000.96,0000.58
2022-12-05 15:52:00,,0816.5,4.99,0.00,21.8,20.4,00.0,30.9,23.5,17.9,0000.0,0005.75,0000.98,0000.58
2022-12-05 15:53:00,,0816.5,5.00,0.00,21.8,20.4,00.0,30.8,23.5,18.0,0000.0,0005.84,0000.98,0000.58
2022-12-05 15:54:00,,0816.5,4.99,0.00,21.8,20.5,00.0,30.8,23.6,18.0,0000.0,0006.00,0001.02,0000.57
2022-12-05 15:55:00,,0816.4,5.00,0.00,21.8,20.5,00.0,30.8,23.5,17.9,0000.0,0005.96,0000.99,0000.56
2022-12-05 15:56:00,,0816.4,5.00,0.00,21.8,20.5,00.0,30.8,23.5,17.9,0000.0,0005.67,0000.98,0000.55
2022-12-05 15:57:00,,0816.4,5.02,0.00,21.8,20.4,00.0,30.8,23.5,17.8,0000.0,0005.08,0000.95,0000.53
2022-12-05 15:58:00,,0816.6,5.00,0.00,21.8,20.4,00.0,30.8,23.5,17.3,0000.0,0004.39,0000.96,0000.51
2022-12-05 15:59:00,,0816.5,5.00,0.00,21.8,20.5,00.0,30.8,23.5,17.8,0000.0,0004.38,0000.94,0000.50
